TELKOM 3S (41944 NORAD) Tracking and Keplerian Element Data

This shows tracking and keplerian element data for the satellite.

Feedback or suggestion? Click here.




ElementValue
Catalog41944
NameTELKOM 3S
Epoch Orbit674
Epoch Day350.4359207
Epoch Year2018
RAAN312.9248
Inclination0.0134
Eccentricity0.0002526
Argument of Perigee299.8493
Mean Anonmoly107.2141
Mean Motion1.00272016
Decay Rate-3.48E-06
L11 41944U 17007A 18350.43592070 -.00000348 00000-0 00000+0 0 9999
L22 41944 0.0134 312.9248 0002526 299.8493 107.2141 1.00272016 6742

Live tracking and technical data element details for TELKOM 3S (NORAD 41944). TELKOM 3S can be tracked NOW for your location showing map with azimuth and elevation plus other details from your city location.

Track the satellite on the map from your city or location and see movement details for azimuth, elevation, latitude, longitude, range, height, and movement on the map or in text.







IsCatalogInMostPopularTable: catalog: 41944, numindb: 144
Update: records affected: 1



GetName: 41944 TELKOM 3S

Hit Count: updated at: Tue, 18 Dec 2018 21:23:57 GMT